Ely, MN

5:47 AM CDT on May 28, 2018 (GMT -0500)
Ely Municipal

Weather History for KELO - October, 2013

Change the Weather History Date:

Sunday, October 13, 2013

  Actual Average Record
Temperature  
Mean Temperature 42 °F -  
Max Temperature 53 °F 51 °F 64 °F (2000)
Min Temperature 30 °F 33 °F 26 °F (2002)
Degree Days  
Heating Degree Days 24    
Moisture  
Dew Point 34 °F    
Average Humidity 76    
Maximum Humidity 100    
Minimum Humidity 41    
Precipitation  
Precipitation 0.00 in - - ()
Sea Level Pressure  
Sea Level Pressure 30.26 in    
Wind  
Wind Speed 6 mph (West)    
Max Wind Speed 14 mph    
Max Gust Speed 22 mph    
Visibility 10 miles    
Events Rain    
Averages and records for this station are not official NWS values.
T = Trace of Precipitation, MM = Missing Value Source: NWS Daily Summary

Daily Weather History Graph

Daily Weather History Graph

Search for Another Location

Airport or City:

Astronomy

Oct. 13, 2013 Rise Set
Actual Time 7:23 AM CDT 6:22 PM CDT
Civil Twilight 6:52 AM CDT 6:53 PM CDT
Nautical Twilight 6:16 AM CDT 7:29 PM CDT
Astronomical Twilight 5:41 AM CDT 8:04 PM CDT
Moon 3:34 PM CDT (10/13) 1:10 AM CDT (10/13)
Length of Visible Light 12h 00m
Length of Day
10h 58m
Waxing Gibbous, 69% of the Moon is Illuminated
Oct 13
Waxing Gibbous
Oct 18
Full
Oct 26
Last Quarter
Nov 3
New
Nov 9
First Quarter

Hourly Weather History & Observations

Time (CDT) Temp. Windchill Dew Point Humidity Pressure Visibility Wind Dir Wind Speed Gust Speed Precip Events Conditions
12:13 AM 44.6 °F 40.7 °F 42.8 °F 93% 30.01 in 10.0 mi West 6.9 mph - N/A   Overcast
12:32 AM 42.8 °F 39.3 °F 41.0 °F 93% 30.03 in 10.0 mi West 5.8 mph - N/A   Overcast
12:53 AM 42.8 °F 37.0 °F 41.0 °F 93% 30.04 in 10.0 mi West 10.4 mph - N/A   Overcast
1:13 AM 42.8 °F 38.6 °F 39.2 °F 87% 30.05 in 10.0 mi West 6.9 mph - N/A   Overcast
1:32 AM 42.8 °F 38.0 °F 39.2 °F 87% 30.06 in 7.0 mi West 8.1 mph - N/A   Overcast
1:53 AM 42.8 °F 38.0 °F 41.0 °F 93% 30.07 in 10.0 mi West 8.1 mph - N/A   Overcast
2:13 AM 42.8 °F 38.0 °F 41.0 °F 93% 30.08 in 5.0 mi West 8.1 mph - N/A Rain Rain
2:33 AM 42.8 °F 38.0 °F 41.0 °F 93% 30.09 in 4.0 mi WNW 8.1 mph - N/A   Drizzle
2:52 AM 42.8 °F 38.0 °F 41.0 °F 93% 30.11 in 4.0 mi WNW 8.1 mph - N/A   Heavy Drizzle
3:13 AM 42.8 °F 37.5 °F 39.2 °F 87% 30.12 in 5.0 mi WNW 9.2 mph - N/A Rain Rain
3:33 AM 42.8 °F 40.1 °F 39.2 °F 87% 30.13 in 10.0 mi WNW 4.6 mph - N/A   Overcast
3:52 AM 42.8 °F - 39.2 °F 87% 30.13 in 10.0 mi Calm Calm - N/A   Overcast
4:13 AM 41.0 °F 39.0 °F 39.2 °F 93% 30.15 in 10.0 mi WNW 3.5 mph - N/A   Overcast
4:33 AM 41.0 °F 38.0 °F 39.2 °F 93% 30.16 in 10.0 mi WNW 4.6 mph - N/A   Overcast
4:52 AM 41.0 °F 38.0 °F 39.2 °F 93% 30.17 in 10.0 mi West 4.6 mph - N/A   Overcast
5:13 AM 41.0 °F 36.4 °F 37.4 °F 87% 30.18 in 10.0 mi WNW 6.9 mph - N/A   Mostly Cloudy
5:33 AM 39.2 °F 35.9 °F 37.4 °F 93% 30.19 in 10.0 mi WNW 4.6 mph - N/A   Mostly Cloudy
5:52 AM 39.2 °F 35.9 °F 39.2 °F 100% 30.19 in 10.0 mi WNW 4.6 mph - N/A   Overcast
6:13 AM 41.0 °F 39.0 °F 39.2 °F 93% 30.20 in 10.0 mi WNW 3.5 mph - N/A   Overcast
6:33 AM 39.2 °F 37.0 °F 37.4 °F 93% 30.21 in 10.0 mi WNW 3.5 mph - N/A   Scattered Clouds
6:52 AM 37.4 °F 34.9 °F 37.4 °F 100% 30.22 in 10.0 mi West 3.5 mph - N/A   Clear
7:13 AM 37.4 °F 34.9 °F 37.4 °F 100% 30.23 in 10.0 mi West 3.5 mph - N/A   Clear
7:33 AM 37.4 °F - 35.6 °F 93% 30.24 in 10.0 mi Calm Calm - N/A   Clear
7:52 AM 35.6 °F - 35.6 °F 100% 30.25 in 10.0 mi Calm Calm - N/A   Clear
8:13 AM 37.4 °F - 35.6 °F 93% 30.26 in 10.0 mi Calm Calm - N/A   Clear
8:32 AM 37.4 °F 34.9 °F 37.4 °F 100% 30.27 in 10.0 mi WSW 3.5 mph - N/A   Clear
8:53 AM 39.2 °F 35.9 °F 37.4 °F 93% 30.28 in 10.0 mi WSW 4.6 mph - N/A   Clear
9:12 AM 39.2 °F 35.9 °F 37.4 °F 93% 30.28 in 10.0 mi West 4.6 mph - N/A   Clear
9:33 AM 39.2 °F 35.9 °F 37.4 °F 93% 30.30 in 10.0 mi WSW 4.6 mph - N/A   Clear
9:53 AM 42.8 °F 40.1 °F 37.4 °F 81% 30.31 in 10.0 mi SW 4.6 mph - N/A   Clear
10:12 AM 44.6 °F 39.2 °F 37.4 °F 76% 30.31 in 10.0 mi WSW 10.4 mph - N/A   Clear
10:33 AM 44.6 °F 40.7 °F 37.4 °F 76% 30.32 in 10.0 mi WSW 6.9 mph - N/A   Clear
10:53 AM 46.4 °F 42.4 °F 37.4 °F 71% 30.33 in 10.0 mi West 8.1 mph - N/A   Clear
11:12 AM 46.4 °F 42.4 °F 37.4 °F 71% 30.33 in 10.0 mi West 8.1 mph - N/A   Clear
11:33 AM 48.2 °F - 35.6 °F 62% 30.33 in 10.0 mi West 9.2 mph - N/A   Clear
11:53 AM 48.2 °F - 33.8 °F 58% 30.33 in 10.0 mi West 9.2 mph - N/A   Clear
12:12 PM 50.0 °F - 33.8 °F 54% 30.33 in 10.0 mi West 6.9 mph - N/A   Clear
12:33 PM 50.0 °F - 30.2 °F 47% 30.32 in 10.0 mi West 13.8 mph - N/A   Scattered Clouds
12:53 PM 51.8 °F - 32.0 °F 47% 30.32 in 10.0 mi West 8.1 mph 20.7 mph N/A   Scattered Clouds
1:12 PM 51.8 °F - 30.2 °F 44% 30.32 in 10.0 mi West 10.4 mph 19.6 mph N/A   Scattered Clouds
1:32 PM 51.8 °F - 30.2 °F 44% 30.32 in 10.0 mi WSW 9.2 mph 21.9 mph N/A   Scattered Clouds
1:53 PM 51.8 °F - 30.2 °F 44% 30.32 in 10.0 mi West 11.5 mph 18.4 mph N/A   Scattered Clouds
2:12 PM 51.8 °F - 28.4 °F 41% 30.32 in 10.0 mi West 10.4 mph 19.6 mph N/A   Scattered Clouds
2:33 PM 51.8 °F - 30.2 °F 44% 30.32 in 10.0 mi West 6.9 mph 18.4 mph N/A   Mostly Cloudy
2:53 PM 53.6 °F - 30.2 °F 41% 30.31 in 10.0 mi WNW 9.2 mph - N/A   Mostly Cloudy
3:13 PM 53.6 °F - 30.2 °F 41% 30.31 in 10.0 mi West 10.4 mph 17.3 mph N/A   Scattered Clouds
3:32 PM 51.8 °F - 30.2 °F 44% 30.31 in 10.0 mi WNW 8.1 mph 18.4 mph N/A   Clear
3:52 PM 53.6 °F - 30.2 °F 41% 30.30 in 10.0 mi WNW 8.1 mph 16.1 mph N/A   Clear
4:13 PM 51.8 °F - 30.2 °F 44% 30.30 in 10.0 mi WSW 9.2 mph - N/A   Scattered Clouds
4:32 PM 51.8 °F - 30.2 °F 44% 30.31 in 10.0 mi West 6.9 mph - N/A   Clear
4:53 PM 51.8 °F - 30.2 °F 44% 30.31 in 10.0 mi West 10.4 mph - N/A   Clear
5:13 PM 51.8 °F - 30.2 °F 44% 30.30 in 10.0 mi West 6.9 mph 16.1 mph N/A   Clear
5:32 PM 51.8 °F - 30.2 °F 44% 30.30 in 10.0 mi West 8.1 mph - N/A   Clear
5:53 PM 50.0 °F - 30.2 °F 47% 30.31 in 10.0 mi WSW 4.6 mph - N/A   Clear
6:13 PM 48.2 °F - 30.2 °F 50% 30.31 in 10.0 mi Calm Calm - N/A   Clear
6:33 PM 46.4 °F - 30.2 °F 53% 30.32 in 10.0 mi Calm Calm - N/A   Clear
6:52 PM 44.6 °F - 32.0 °F 61% 30.33 in 10.0 mi Calm Calm - N/A   Clear
7:13 PM 39.2 °F - 32.0 °F 75% 30.33 in 10.0 mi Calm Calm - N/A   Clear
7:33 PM 37.4 °F - 33.8 °F 87% 30.34 in 10.0 mi Calm Calm - N/A   Clear
7:52 PM 37.4 °F - 33.8 °F 87% 30.34 in 10.0 mi Calm Calm - N/A   Clear
8:13 PM 35.6 °F - 32.0 °F 87% 30.34 in 10.0 mi Calm Calm - N/A   Clear
8:33 PM 35.6 °F - 32.0 °F 87% 30.35 in 10.0 mi Calm Calm - N/A   Clear
8:52 PM 33.8 °F - 30.2 °F 87% 30.35 in 10.0 mi Calm Calm - N/A   Clear
9:13 PM 33.8 °F - 30.2 °F 87% 30.35 in 10.0 mi Calm Calm - N/A   Clear
9:33 PM 32.0 °F - 30.2 °F 93% 30.35 in 10.0 mi Calm Calm - N/A   Clear
9:52 PM 32.0 °F - 30.2 °F 93% 30.36 in 10.0 mi Calm Calm - N/A   Clear
10:13 PM 32.0 °F - 30.2 °F 93% 30.37 in 10.0 mi Calm Calm - N/A   Clear
10:33 PM 30.2 °F - 28.4 °F 93% 30.36 in 10.0 mi Calm Calm - N/A   Clear
10:52 PM 30.2 °F - 28.4 °F 93% 30.37 in 10.0 mi Calm Calm - N/A   Clear
11:13 PM 30.2 °F - 28.4 °F 93% 30.38 in 10.0 mi Calm Calm - N/A   Clear
11:33 PM 30.2 °F - 26.6 °F 86% 30.38 in 10.0 mi Calm Calm - N/A   Clear
11:52 PM 30.2 °F - 28.4 °F 93% 30.38 in 10.0 mi Calm Calm - N/A   Clear